[[{"header":{"parameterUnit":"m.s-1","parameterCategory":1,"la1":30.2991,"la2":30.254,"lo1":-89.0895,"lo2":-89.0444,"dy":0.0017,"dx":0.0017,"nx":28,"ny":28,"refTime":"2025-01-24T03:00:00:Z","depth":0,"parameterNumber":2,"parameterNumberName":"U-component_of_WINDS"},"data":[0,0,0,0,0,0,0,0,0,0,0,0,0,0,0,0,0,0,0,0,0,0,0,0,0,0,0,0,0,0,0,0,0,0,0,0,0,0,0,0,0,0,0,0,0,0,0,0,0,0,0,0,0,0,0,0,0,0,3.0201,3.0201,0,3.0199,3.0199,3.0199,3.0167,3.0166,3.0166,3.0165,3.0163,3.0164,3.0165,0,0,0,0,0,0,0,0,0,0,0,0,0,3.018,3.0181,3.0201,3.0201,3.0201,3.0199,3.0199,3.0199,3.0167,3.0166,3.0165,3.0164,3.0163,3.0164,3.0165,0,0,0,0,0,0,0,0,0,0,0,0,0,3.0185,3.0181,3.0201,3.0185,3.0184,3.0199,3.0199,3.0199,3.0168,3.0166,3.0165,3.0164,3.0163,3.0164,3.0165,3.0196,0,0,3.0168,3.0169,0,0,0,0,0,0,0,0,3.0185,3.0186,3.0188,3.0186,3.0185,3.0182,3.0191,3.0198,3.0168,3.0174,3.0165,3.0163,3.0171,3.0171,3.0173,3.0196,3.0196,3.0168,3.0169,3.0169,3.017,0,0,0,0,0,0,0,3.0184,3.0186,3.0201,3.0188,3.0186,3.0179,3.0178,3.0192,3.0179,3.0173,3.0171,3.0171,3.017,3.0172,3.0173,3.0196,3.0168,3.0169,3.017,3.017,3.0246,3.0247,0,0,0,0,0,0,3.0186,3.0186,3.0201,3.0201,3.0182,3.018,3.0179,3.0184,3.0179,3.0177,3.0172,3.017,3.0171,3.0172,3.0173,3.021,3.0169,3.017,3.0171,3.0245,3.0246,3.0248,0,0,0,0,0,0,3.0186,3.0188,3.0201,3.0192,3.0194,3.0182,3.0188,3.0185,3.0188,3.0178,3.0176,3.0177,3.017,3.0171,3.0191,3.0209,3.0171,3.0172,3.0243,3.0245,3.0247,3.0283,0,0,0,0,0,0,3.0185,3.0188,3.0199,3.0193,3.0194,3.0218,3.0189,3.0186,3.0189,3.0186,3.0182,3.018,3.0169,3.0189,3.0192,3.021,3.0173,3.0241,3.0244,3.0246,3.028,3.0286,3.0291,0,0,0,0,0,3.0185,3.0209,3.0199,3.0201,3.0208,3.0219,3.022,3.0207,3.0191,3.0202,3.0197,3.018,3.0207,3.0192,3.0194,3.0213,3.024,3.0243,3.0246,3.0278,3.0285,3.0291,0,0,0,0,0,0,3.0217,3.0208,3.0197,3.022,3.0221,3.0214,3.0228,3.0215,3.022,3.0216,3.02,3.0199,3.0222,3.0219,3.0202,3.0244,3.0221,3.0225,3.0244,3.0251,3.0256,3.0256,3.0174,0,0,0,0,0,3.0227,3.0237,3.0228,3.025,3.025,3.0239,3.0244,3.0234,3.0234,3.0234,3.0229,3.023,3.0239,3.0245,3.0252,3.028,3.028,3.0295,3.03,3.0305,3.0308,3.0324,3.0331,3.0258,3.0258,3.0258,0,0,3.0247,3.0243,3.025,3.0256,3.0255,3.0267,3.024,3.0252,3.0261,3.0236,3.0254,3.0251,3.0251,3.0276,3.0286,3.0274,3.0328,3.0309,3.0312,3.0313,3.0328,3.0335,3.0341,3.026,3.0259,3.0259,0,0,3.029,3.0288,3.0306,3.0306,3.0305,3.0298,3.0303,3.0298,3.0295,3.0313,3.0296,3.0306,3.0321,3.0322,3.0325,3.0371,3.0356,3.0374,3.0402,3.0418,3.0424,3.0429,3.0446,3.0452,3.0377,3.0377,3.0377,0,3.0315,3.0331,3.0317,3.0331,3.0334,3.0313,3.0332,3.0333,3.0335,3.0338,3.0325,3.0345,3.0343,3.0368,3.038,3.0382,3.0388,3.0373,3.0424,3.0429,3.0433,3.0449,3.0456,3.0379,3.0379,3.0379,3.0379,0,3.0362,3.0374,3.0389,3.0391,3.0397,3.0413,3.0402,3.041,3.04,3.0394,3.0414,3.0412,3.0419,3.0425,3.0415,3.0449,3.0442,3.0427,3.0403,3.0443,3.0457,3.0463,3.0382,3.0382,3.0381,3.038,0,0,3.0424,3.042,3.0426,3.0427,3.0426,3.0435,3.0451,3.0459,3.0465,3.0468,3.0482,3.0497,3.0483,3.0486,3.0477,3.0491,3.0528,3.0474,3.0474,3.0484,3.0567,3.0578,3.0585,3.0519,3.052,3.0521,3.0567,0,3.0465,3.0492,3.0481,3.0509,3.052,3.0501,3.0516,3.0517,3.0513,3.0523,3.0518,3.0529,3.051,3.0512,3.0525,3.0521,3.0545,3.0518,3.0532,3.0533,3.0532,3.0592,3.0604,3.0646,3.0572,3.0573,3.0574,0,3.0516,3.0522,3.0551,3.055,3.0554,3.0567,3.0574,3.0583,3.0585,3.0581,3.0586,3.0574,3.0591,3.0568,3.0592,3.0574,3.058,3.0579,3.058,3.0581,3.0555,3.0594,3.066,3.0666,3.0583,3.0582,3.0582,0,3.0559,3.0573,3.0593,3.0595,3.0594,3.0604,3.0604,3.0604,3.061,3.0616,3.062,3.0628,3.0633,3.064,3.0631,3.0615,3.0657,3.0633,3.0654,3.0655,3.0663,3.0662,3.073,3.0668,3.0667,3.0667,3.0667,0,3.0606,3.0625,3.0612,3.0624,3.0646,3.0633,3.0655,3.0653,3.0654,3.0666,3.0651,3.0663,3.0651,3.0662,3.0655,3.0677,3.0679,3.0677,3.0675,3.0678,3.0678,3.0681,3.0677,3.0669,3.0669,3.0668,3.0668,0,3.0656,3.0648,3.0669,3.0666,3.0666,3.0682,3.068,3.0692,3.0688,3.0703,3.0706,3.07,3.0712,3.0705,3.0717,3.0713,3.0741,3.0735,3.074,3.0738,3.076,3.0758,3.0831,3.084,3.0772,3.0773,3.0774,0,3.0686,3.07,3.07,3.0707,3.0708,3.0719,3.0725,3.0715,3.0722,3.0726,3.0738,3.0749,3.0757,3.0779,3.0775,3.0785,3.0779,3.0804,3.0781,3.0784,3.078,3.0779,3.0781,3.0809,3.081,3.081,3.0811,0,3.0741,3.0737,3.0746,3.0754,3.0762,3.0768,3.0773,3.0779,3.0769,3.0778,3.0791,3.0797,3.0811,3.0823,3.0832,3.0832,3.082,3.0819,3.0824,3.0827,3.083,3.0829,3.0753,3.0817,3.0816,3.0816,3.0815,3.0815,3.0782,3.0795,3.0796,3.0807,3.081,3.0815,3.0826,3.0824,3.0834,3.0844,3.0838,3.0853,3.0857,3.0867,3.087,3.0883,3.0872,3.088,3.0882,3.0884,3.0887,3.0828,3.0884,3.0884,3.0884,3.0884,3.0884,0,3.0837,3.0837,3.0847,3.0855,3.0864,3.0852,3.0857,3.0866,3.0879,3.0884,3.0892,3.0908,3.092,3.0918,3.0929,3.094,3.0935,3.0943,3.0942,3.0943,3.0896,3.089,3.0947,3.0947,3.0947,3.0947,3.0947,3.0947,3.0866,3.0886,3.0883,3.0905,3.0905,3.092,3.0924,3.0929,3.0933,3.095,3.096,3.0959,3.0962,3.0973,3.0984,3.0983,3.0988,3.0999,3.0996,3.0952,3.0946,3.094,3.0934,3.1,3.1,3.1042,3.1042,3.1042]},{"header":{"parameterUnit":"m.s-1","parameterCategory":1,"la1":30.2991,"la2":30.254,"lo1":-89.0895,"lo2":-89.0444,"dy":0.0017,"dx":0.0017,"nx":28,"ny":28,"refTime":"2025-01-24T03:00:00:Z","depth":0,"parameterNumber":3,"parameterNumberName":"V-component_of_WINDS"},"data":[0,0,0,0,0,0,0,0,0,0,0,0,0,0,0,0,0,0,0,0,0,0,0,0,0,0,0,0,0,0,0,0,0,0,0,0,0,0,0,0,0,0,0,0,0,0,0,0,0,0,0,0,0,0,0,0,0,0,-3.4538,-3.4538,0,-3.455,-3.455,-3.455,-3.4529,-3.4529,-3.4528,-3.4527,-3.4539,-3.4539,-3.454,0,0,0,0,0,0,0,0,0,0,0,0,0,-3.4494,-3.4495,-3.4537,-3.4538,-3.4538,-3.455,-3.455,-3.455,-3.4529,-3.4529,-3.4528,-3.4527,-3.4538,-3.4539,-3.454,0,0,0,0,0,0,0,0,0,0,0,0,0,-3.451,-3.4495,-3.4537,-3.4529,-3.4528,-3.455,-3.455,-3.4551,-3.453,-3.4529,-3.4527,-3.4526,-3.4538,-3.4539,-3.4541,-3.4571,0,0,-3.4545,-3.4546,0,0,0,0,0,0,0,0,-3.451,-3.4512,-3.453,-3.4529,-3.4529,-3.4537,-3.4539,-3.4557,-3.453,-3.4529,-3.4527,-3.4526,-3.4539,-3.454,-3.4545,-3.4572,-3.4572,-3.4545,-3.4546,-3.4547,-3.4547,0,0,0,0,0,0,0,-3.4508,-3.4511,-3.4542,-3.453,-3.453,-3.4524,-3.4525,-3.4542,-3.454,-3.4529,-3.4528,-3.4529,-3.4538,-3.4543,-3.4545,-3.4572,-3.4545,-3.4546,-3.4547,-3.4548,-3.4625,-3.4626,0,0,0,0,0,0,-3.4509,-3.4511,-3.4542,-3.4543,-3.4516,-3.4526,-3.4527,-3.4535,-3.4539,-3.4539,-3.453,-3.4528,-3.4541,-3.4543,-3.4545,-3.4581,-3.4547,-3.4548,-3.4549,-3.4624,-3.4625,-3.4627,0,0,0,0,0,0,-3.4508,-3.4512,-3.4542,-3.4526,-3.453,-3.4528,-3.4537,-3.4536,-3.4541,-3.454,-3.454,-3.4536,-3.4541,-3.4543,-3.4565,-3.4581,-3.4549,-3.455,-3.4623,-3.4624,-3.4626,-3.4654,0,0,0,0,0,0,-3.4507,-3.4511,-3.4523,-3.4527,-3.4531,-3.4562,-3.4538,-3.4537,-3.4544,-3.4542,-3.4546,-3.4545,-3.454,-3.4563,-3.4566,-3.4583,-3.4551,-3.4621,-3.4623,-3.4625,-3.4651,-3.4656,-3.466,0,0,0,0,0,-3.4505,-3.453,-3.4524,-3.4528,-3.4545,-3.4562,-3.4565,-3.4558,-3.4546,-3.4557,-3.4557,-3.4545,-3.4579,-3.4565,-3.4569,-3.4586,-3.462,-3.4623,-3.4625,-3.4649,-3.4655,-3.466,0,0,0,0,0,0,-3.4527,-3.453,-3.4523,-3.455,-3.4556,-3.4559,-3.4573,-3.4565,-3.4574,-3.4572,-3.4563,-3.4564,-3.4588,-3.4589,-3.4574,-3.4616,-3.4597,-3.4601,-3.4614,-3.462,-3.4624,-3.4623,-3.4552,0,0,0,0,0,-3.4535,-3.4549,-3.4551,-3.4574,-3.4578,-3.4575,-3.4583,-3.4577,-3.4583,-3.4586,-3.4587,-3.4592,-3.4604,-3.4612,-3.4623,-3.4652,-3.4652,-3.4665,-3.467,-3.4674,-3.4677,-3.4692,-3.4698,-3.4635,-3.4635,-3.4635,0,0,-3.4552,-3.4555,-3.4564,-3.4579,-3.4583,-3.4598,-3.4578,-3.4594,-3.4604,-3.4588,-3.4609,-3.461,-3.4616,-3.4641,-3.4652,-3.4643,-3.4694,-3.4677,-3.468,-3.4681,-3.4696,-3.4701,-3.4707,-3.4637,-3.4637,-3.4637,0,0,-3.4589,-3.4594,-3.4614,-3.4619,-3.4626,-3.4624,-3.4629,-3.4633,-3.4634,-3.4655,-3.4643,-3.4655,-3.4676,-3.4681,-3.4686,-3.4727,-3.4717,-3.4731,-3.4754,-3.477,-3.4774,-3.4779,-3.4794,-3.4799,-3.4734,-3.4734,-3.4734,0,-3.4609,-3.4631,-3.4625,-3.4643,-3.4649,-3.4636,-3.4657,-3.4661,-3.4671,-3.4676,-3.4666,-3.4692,-3.4695,-3.4722,-3.4732,-3.4737,-3.4742,-3.473,-3.4774,-3.4779,-3.4783,-3.4797,-3.4802,-3.4735,-3.4735,-3.4735,-3.4735,0,-3.4655,-3.467,-3.4686,-3.4697,-3.4706,-3.4724,-3.4721,-3.4731,-3.4725,-3.4724,-3.4746,-3.4749,-3.4761,-3.4767,-3.4761,-3.4793,-3.4787,-3.4776,-3.4757,-3.479,-3.4803,-3.4809,-3.4738,-3.4737,-3.4737,-3.4736,0,0,-3.4706,-3.4714,-3.472,-3.4725,-3.4733,-3.4744,-3.4763,-3.4775,-3.4783,-3.4791,-3.4806,-3.4824,-3.4814,-3.482,-3.4815,-3.4829,-3.4861,-3.4815,-3.4815,-3.4824,-3.4897,-3.4905,-3.4911,-3.4855,-3.4856,-3.4857,-3.4896,0,-3.4743,-3.4776,-3.4772,-3.4802,-3.4817,-3.4805,-3.4821,-3.4827,-3.4827,-3.4839,-3.4839,-3.4853,-3.4838,-3.4842,-3.4854,-3.4854,-3.4876,-3.4852,-3.4868,-3.4869,-3.4867,-3.4918,-3.4927,-3.4964,-3.4901,-3.4902,-3.4903,0,-3.4791,-3.4802,-3.4835,-3.4841,-3.4847,-3.4861,-3.4872,-3.4884,-3.4891,-3.489,-3.4898,-3.489,-3.4909,-3.489,-3.4915,-3.4899,-3.4905,-3.4906,-3.4908,-3.4909,-3.4888,-3.492,-3.4976,-3.4982,-3.4911,-3.491,-3.4909,0,-3.4825,-3.4848,-3.487,-3.4875,-3.4883,-3.4893,-3.4897,-3.4903,-3.4911,-3.492,-3.4925,-3.4937,-3.4943,-3.4952,-3.4948,-3.4935,-3.4974,-3.4955,-3.4974,-3.4974,-3.4982,-3.4982,-3.5039,-3.4987,-3.4987,-3.4987,-3.4987,0,-3.4868,-3.4888,-3.4886,-3.49,-3.4923,-3.4918,-3.494,-3.4942,-3.4948,-3.4961,-3.4952,-3.4965,-3.4959,-3.4972,-3.4969,-3.499,-3.4993,-3.4992,-3.4991,-3.4993,-3.4993,-3.4997,-3.4994,-3.4988,-3.4988,-3.4988,-3.4987,0,-3.4909,-3.4909,-3.4933,-3.4938,-3.494,-3.4957,-3.4961,-3.4974,-3.4974,-3.4992,-3.4996,-3.4995,-3.501,-3.5007,-3.5023,-3.5021,-3.5048,-3.5043,-3.5046,-3.5044,-3.5063,-3.5062,-3.5125,-3.5134,-3.5076,-3.5077,-3.5077,0,-3.4936,-3.4952,-3.496,-3.4969,-3.4974,-3.4988,-3.4997,-3.4992,-3.5001,-3.5011,-3.5023,-3.5037,-3.5048,-3.5072,-3.5072,-3.5084,-3.508,-3.5102,-3.5082,-3.5084,-3.5081,-3.508,-3.5081,-3.5106,-3.5106,-3.5107,-3.5107,0,-3.4984,-3.4984,-3.4996,-3.501,-3.502,-3.503,-3.5039,-3.5047,-3.5043,-3.5054,-3.5069,-3.5078,-3.5095,-3.5109,-3.512,-3.5123,-3.5115,-3.5114,-3.5119,-3.5121,-3.5121,-3.5121,-3.5056,-3.5112,-3.5112,-3.5111,-3.5111,-3.5111,-3.5019,-3.5033,-3.5041,-3.5056,-3.5062,-3.5071,-3.5084,-3.5086,-3.5099,-3.5113,-3.5109,-3.5127,-3.5134,-3.5149,-3.5153,-3.5167,-3.5158,-3.5166,-3.5167,-3.5169,-3.5172,-3.512,-3.5169,-3.5168,-3.5168,-3.5168,-3.5168,0,-3.5067,-3.5072,-3.5086,-3.5099,-3.5111,-3.5103,-3.5112,-3.5123,-3.5138,-3.5146,-3.5157,-3.5175,-3.5189,-3.5191,-3.5204,-3.5215,-3.5211,-3.5218,-3.5217,-3.5218,-3.5178,-3.5172,-3.5221,-3.5221,-3.5221,-3.5221,-3.5221,-3.5221,-3.5093,-3.5116,-3.5116,-3.5142,-3.5147,-3.5165,-3.5171,-3.5179,-3.5185,-3.5206,-3.5217,-3.5219,-3.5225,-3.5238,-3.5251,-3.5251,-3.5256,-3.5265,-3.5264,-3.5226,-3.5221,-3.5216,-3.521,-3.5266,-3.5266,-3.5302,-3.5303,-3.5303]}]]